Stündliche Wetter Otradno-Kurnosovskiy

Heute, 14 April, Mittwoch

Zeit Temperatur Niederschläge Wind Luftdruck Luftfeuchtigkeit
00:00 +12°C° 0 mm 3 m/S 758 mmHg 65%
01:00 +12°C° 0 mm 3 m/S 758 mmHg 61%
02:00 +11°C° 0 mm 3 m/S 758 mmHg 58%
03:00 +10°C° 0 mm 4 m/S 757 mmHg 54%
04:00 +10°C° 0 mm 4 m/S 757 mmHg 54%
05:00 +10°C° 0 mm 3 m/S 757 mmHg 54%
06:00 +10°C° 0 mm 3 m/S 757 mmHg 54%
07:00 +12°C° 0 mm 4 m/S 757 mmHg 49%
08:00 +13°C° 0 mm 4 m/S 757 mmHg 43%
09:00 +15°C° 0 mm 5 m/S 756 mmHg 38%
10:00 +17°C° 0 mm 4 m/S 756 mmHg 37%
11:00 +18°C° 0 mm 3 m/S 756 mmHg 36%
12:00 +19°C° 0 mm 3 m/S 755 mmHg 34%
13:00 +19°C° 0 mm 4 m/S 755 mmHg 33%
14:00 +20°C° 0 mm 5 m/S 755 mmHg 33%
15:00 +20°C° 0 mm 6 m/S 755 mmHg 32%
16:00 +19°C° 0 mm 5 m/S 755 mmHg 37%
17:00 +18°C° 0 mm 4 m/S 755 mmHg 42%
18:00 +17°C° 0 mm 4 m/S 754 mmHg 47%
19:00 +17°C° 0 mm 3 m/S 755 mmHg 50%
20:00 +16°C° 0 mm 3 m/S 755 mmHg 54%
21:00 +15°C° 0 mm 2 m/S 755 mmHg 58%
22:00 +14°C° 0 mm 2 m/S 754 mmHg 60%
23:00 +14°C° 0 mm 2 m/S 754 mmHg 62%

Morgen, 15 April, Donnerstag

Zeit Temperatur Niederschläge Wind Luftdruck Luftfeuchtigkeit
00:00 +14°C° 0 mm 2 m/S 754 mmHg 63%
01:00 +13°C° 0 mm 2 m/S 754 mmHg 66%
02:00 +13°C° 0 mm 2 m/S 754 mmHg 69%
03:00 +12°C° 0 mm 2 m/S 754 mmHg 71%
04:00 +12°C° 0 mm 1 m/S 754 mmHg 74%
05:00 +11°C° 0 mm 1 m/S 754 mmHg 77%
06:00 +11°C° 0 mm 1 m/S 755 mmHg 80%
07:00 +12°C° 0 mm 2 m/S 755 mmHg 75%
08:00 +14°C° 0 mm 2 m/S 755 mmHg 70%
09:00 +14°C° 0 mm 3 m/S 755 mmHg 65%
10:00 +16°C° 0 mm 3 m/S 755 mmHg 60%
11:00 +17°C° 0 mm 3 m/S 755 mmHg 55%
12:00 +18°C° 0 mm 3 m/S 755 mmHg 50%
13:00 +19°C° 0 mm 3 m/S 754 mmHg 47%
14:00 +19°C° 0 mm 3 m/S 754 mmHg 44%
15:00 +19°C° 0 mm 3 m/S 754 mmHg 41%
16:00 +19°C° 0 mm 2 m/S 754 mmHg 43%
17:00 +18°C° 0 mm 2 m/S 754 mmHg 45%
18:00 +18°C° 0 mm 2 m/S 754 mmHg 47%
19:00 +17°C° 0 mm 2 m/S 754 mmHg 51%
20:00 +16°C° 0 mm 2 m/S 754 mmHg 56%
21:00 +15°C° 0 mm 2 m/S 755 mmHg 60%
22:00 +14°C° 0 mm 2 m/S 755 mmHg 63%
23:00 +14°C° 0 mm 2 m/S 755 mmHg 66%

übermorgen, 16 April, Freitag

Zeit Temperatur Niederschläge Wind Luftdruck Luftfeuchtigkeit
00:00 +14°C° 0 mm 2 m/S 754 mmHg 69%
01:00 +13°C° 0 mm 2 m/S 755 mmHg 71%
02:00 +13°C° 0 mm 2 m/S 755 mmHg 73%
03:00 +12°C° 0 mm 2 m/S 755 mmHg 75%
04:00 +12°C° 0 mm 2 m/S 755 mmHg 77%
05:00 +12°C° 0 mm 1 m/S 755 mmHg 79%
06:00 +11°C° 0 mm 1 m/S 755 mmHg 80%
07:00 +13°C° 0 mm 1 m/S 756 mmHg 74%
08:00 +14°C° 0 mm 1 m/S 756 mmHg 69%
09:00 +16°C° 0 mm 1 m/S 756 mmHg 63%
10:00 +17°C° 0.1 mm 2 m/S 756 mmHg 58%
11:00 +18°C° 0.1 mm 3 m/S 756 mmHg 53%
12:00 +19°C° 0.1 mm 3 m/S 756 mmHg 48%
13:00 +19°C° 0.1 mm 3 m/S 756 mmHg 44%
14:00 +20°C° 0.1 mm 4 m/S 756 mmHg 40%
15:00 +20°C° 0.1 mm 4 m/S 756 mmHg 36%
16:00 +20°C° 0 mm 3 m/S 756 mmHg 39%
17:00 +19°C° 0 mm 3 m/S 756 mmHg 42%
18:00 +18°C° 0 mm 2 m/S 755 mmHg 45%
19:00 +17°C° 0 mm 3 m/S 756 mmHg 49%
20:00 +16°C° 0 mm 3 m/S 756 mmHg 53%
21:00 +14°C° 0 mm 3 m/S 756 mmHg 57%
22:00 +13°C° 1 mm 4 m/S 756 mmHg 68%
23:00 +11°C° 1 mm 4 m/S 756 mmHg 79%

17 April, Samstag

Zeit Temperatur Niederschläge Wind Luftdruck Luftfeuchtigkeit
00:00 +9°C° 1 mm 5 m/S 757 mmHg 90%
01:00 +10°C° 2.2 mm 4 m/S 757 mmHg 91%
02:00 +10°C° 2.2 mm 3 m/S 757 mmHg 91%
03:00 +10°C° 2.2 mm 2 m/S 756 mmHg 91%
04:00 +10°C° 0.4 mm 3 m/S 757 mmHg 91%
05:00 +9°C° 0.4 mm 3 m/S 757 mmHg 90%
06:00 +8°C° 0.4 mm 4 m/S 757 mmHg 89%
07:00 +10°C° 0 mm 4 m/S 757 mmHg 82%
08:00 +10°C° 0 mm 4 m/S 757 mmHg 75%
09:00 +11°C° 0 mm 4 m/S 758 mmHg 68%
10:00 +12°C° 0 mm 4 m/S 758 mmHg 62%
11:00 +13°C° 0 mm 4 m/S 758 mmHg 56%
12:00 +14°C° 0 mm 4 m/S 758 mmHg 50%
13:00 +14°C° 0 mm 4 m/S 758 mmHg 47%
14:00 +14°C° 0 mm 3 m/S 758 mmHg 45%
15:00 +16°C° 0 mm 3 m/S 758 mmHg 43%
16:00 +14°C° 0 mm 3 m/S 758 mmHg 46%
17:00 +13°C° 0 mm 3 m/S 758 mmHg 50%
18:00 +13°C° 0 mm 3 m/S 758 mmHg 54%
19:00 +13°C° 0 mm 2 m/S 758 mmHg 58%
20:00 +12°C° 0 mm 2 m/S 759 mmHg 63%
21:00 +11°C° 0 mm 1 m/S 759 mmHg 67%
22:00 +11°C° 0 mm 1 m/S 759 mmHg 68%
23:00 +10°C° 0 mm 1 m/S 759 mmHg 69%

18 April, Sonntag

Zeit Temperatur Niederschläge Wind Luftdruck Luftfeuchtigkeit
00:00 +10°C° 0 mm 1 m/S 759 mmHg 69%
01:00 +10°C° 0 mm 1 m/S 759 mmHg 70%
02:00 +9°C° 0 mm 1 m/S 759 mmHg 72%
03:00 +9°C° 0 mm 1 m/S 759 mmHg 73%
04:00 +9°C° 0 mm 1 m/S 759 mmHg 73%
05:00 +9°C° 0 mm 1 m/S 759 mmHg 74%
06:00 +9°C° 0 mm 1 m/S 758 mmHg 74%
07:00 +10°C° 0 mm 1 m/S 758 mmHg 68%
08:00 +12°C° 0 mm 1 m/S 758 mmHg 62%
09:00 +14°C° 0 mm 1 m/S 759 mmHg 56%
10:00 +15°C° 0 mm 2 m/S 758 mmHg 51%
11:00 +15°C° 0 mm 2 m/S 758 mmHg 47%
12:00 +16°C° 0 mm 2 m/S 758 mmHg 42%
13:00 +17°C° 0 mm 2 m/S 758 mmHg 41%
14:00 +18°C° 0 mm 1 m/S 758 mmHg 40%
15:00 +18°C° 0 mm 1 m/S 758 mmHg 40%
16:00 +16°C° 0 mm 1 m/S 758 mmHg 45%
17:00 +16°C° 0 mm 2 m/S 758 mmHg 50%
18:00 +15°C° 0 mm 2 m/S 758 mmHg 55%
19:00 +13°C° 0 mm 3 m/S 758 mmHg 59%
20:00 +13°C° 0 mm 3 m/S 758 mmHg 63%
21:00 +12°C° 0 mm 3 m/S 758 mmHg 67%
22:00 +11°C° 0.5 mm 3 m/S 759 mmHg 73%
23:00 +10°C° 0.5 mm 3 m/S 759 mmHg 79%

19 April, Montag

Zeit Temperatur Niederschläge Wind Luftdruck Luftfeuchtigkeit
00:00 +10°C° 0.5 mm 3 m/S 759 mmHg 85%
01:00 +9°C° 1.5 mm 3 m/S 759 mmHg 87%
02:00 +9°C° 1.5 mm 3 m/S 759 mmHg 89%
03:00 +9°C° 1.5 mm 3 m/S 759 mmHg 91%
04:00 +9°C° 1.2 mm 3 m/S 759 mmHg 92%
05:00 +9°C° 1.2 mm 3 m/S 759 mmHg 92%
06:00 +8°C° 1.2 mm 3 m/S 759 mmHg 92%
07:00 +9°C° 0.8 mm 3 m/S 760 mmHg 90%
08:00 +9°C° 0.8 mm 3 m/S 760 mmHg 87%
09:00 +10°C° 0.8 mm 4 m/S 760 mmHg 84%
10:00 +10°C° 0.3 mm 4 m/S 760 mmHg 82%
11:00 +9°C° 0.3 mm 5 m/S 761 mmHg 80%
12:00 +9°C° 0.3 mm 6 m/S 761 mmHg 77%
13:00 +9°C° 0 mm 6 m/S 761 mmHg 76%
14:00 +9°C° 0 mm 7 m/S 762 mmHg 75%
15:00 +9°C° 0 mm 8 m/S 762 mmHg 74%
16:00 +9°C° 0 mm 7 m/S 762 mmHg 73%
17:00 +9°C° 0 mm 6 m/S 762 mmHg 71%
18:00 +9°C° 0 mm 5 m/S 763 mmHg 70%
19:00 +8°C° 0 mm 5 m/S 763 mmHg 72%
20:00 +7°C° 0 mm 4 m/S 763 mmHg 74%
21:00 +7°C° 0 mm 3 m/S 763 mmHg 77%
22:00 +6°C° 0 mm 4 m/S 763 mmHg 73%
23:00 +5°C° 0 mm 5 m/S 763 mmHg 69%
Mehr zeigen

Wir brauchen deine Erlaubnis

Meteoprog und unser Service Anbieter werden persönliche Daten aufbewahren, so wie Cookies, Geräte Bezeichnung oder ähnliche Technologien von deinem Gerät und Prozess, so wie Persönliche Daten Inhalte und Werbungen, genauso wie social Media und den Verkehr zu analysieren.

  • Aufbewahrung und/oder Zugang zu deiner Geräte Informationen.

    Cookies, Geräte Bezeichnung oder andere Informationen, können aufbewahrt oder Zugang zu deinem Gerät erhalten, für den Grund, der oben angegeben wird.

  • Personalisierte Werbung und Inhalte, Messungen, Einblick in das Publikum und Produkt Entwicklung.

    Werbungen und Inhalte können personalisiert werden, basierend auf ein Profil. Mehr Daten können besser personalisierte Werbungen und Inhalte hinzufügen. Werbung und Inhalte können gezeigt und gemessen werden. Einblicke über das Publikum, welche die Werbung gesehen haben und den Inhalt, können abgeleitet werden. So wie Daten können genutzt werden, um es zu verbessern oder die Benutzer Erfahrung zu verbessern das System und die Software.

Wenn du “Ich stimme zu” klickst, erlaubst du uns, die Cookies zu benutzen die Geräte Bezeichnung, den Web oder ähnliche Technologien zu benutzen. Deine Settings, können in deinem Gerät bei deinem Browser geändert werden.

Für den bestimmten Zweck, berechtigten Interessen beruhen darauf, mehr als auf den Inhalt. Du kannst mehr darüber in unseren Privaten und Cookie Politik lesen.